Regional Weather Roundup
Issued by NWS Charleston, WV

Home | Current Version | Previous Version | Text Only | Print | Product List | Glossary On
Versions: 1 2 3 4 5 6 7 8 9 10 11 12 13 14 15 16 17 18 19 20 21 22 23 24 25 26 27 28
000
ASUS41 KRLX 141910
RWRRLX
West Virginia Regional Weather Roundup
National Weather Service Charleston WV
200 PM EST THU DEC 14 2017

Note: "fair" indicates few or no clouds below 12,000 feet with no
significant weather and/or obstructions to visibility.

WVZ003-142000-
Northern Panhandle of West Virginia

CITY           SKY/WX    TMP DP  RH WIND       PRES   REMARKS
WHEELING       CLOUDY    25  14  63 NW7       29.94R
$$

WVZ009-142000-
Northwest West Virginia

CITY           SKY/WX    TMP DP  RH WIND       PRES   REMARKS
PARKERSBURG    CLOUDY    29  17  61 VRB5      30.01R
$$

WVZ006-142000-
Western West Virginia

CITY           SKY/WX    TMP DP  RH WIND       PRES   REMARKS
HUNTINGTON     CLOUDY    34  19  54 N7        29.98S
$$

WVZ015-142000-
West Central West Virginia

CITY           SKY/WX    TMP DP  RH WIND       PRES   REMARKS
CHARLESTON     CLOUDY    34  19  54 CALM      29.96R
$$

WVZ022-031-142000-
North Central West Virginia

CITY           SKY/WX    TMP DP  RH WIND       PRES   REMARKS
CLARKSBURG     CLOUDY    30  22  72 NW9       29.93R
MORGANTOWN     FLURRIES  28  19  69 N6        29.93R
$$

WVZ025-035-042-045-142000-
Southern West Virginia

CITY           SKY/WX    TMP DP  RH WIND       PRES   REMARKS
BECKLEY        CLOUDY    30  20  66 NW7       29.87R
LOGAN          CLOUDY    32  21  64 CALM      29.92R
BLUEFIELD      CLOUDY    30  20  66 W10       29.85R
LEWISBURG      CLOUDY    31  20  63 NW6       29.89R
$$

WVZ047-142000-
Northern Mountains of West Virginia

CITY           SKY/WX    TMP DP  RH WIND       PRES   REMARKS
ELKINS         CLOUDY    28  19  69 NW7       29.88R
$$

WVZ052-142000-
Eastern Panhandle of West Virginia

CITY           SKY/WX    TMP DP  RH WIND       PRES   REMARKS
MARTINSBURG    PTSUNNY   36  17  46 NW12G22   29.89R
PETERSBURG     CLOUDY    33  19  56 NW10      29.91R
$$




USA.gov is the U.S. government's official web portal to all federal, state and local government web resources and services.